Temperature
18 18 19 19 16 14 16 18 19 20 21 22 22 21 19 19 19 19 19 18 17 17 16 15 14 14 14 13 13 13 13 12 12 12 12 12 11 11 12 12 11 11 11 12 12 12 12 12 12
18 18 19 18 15 15 17 18 19 20 22 22 22 21 19 19 20 20 19 18 17 17 16 15 15 14 14 13 13 13 12 12 12 12 12 12 11 11 11 11 11 11 12 12 12 12 12 12 12
18 18 18 15 15 16 18 19 19 21 23 23 22 21 21 20 20 20 20 18 17 17 16 15 15 14 14 13 13 13 12 12 12 12 12 12 11 11 11 11 12 12 12 12 12 12 12 12 12
18 18 18 15 17 17 18 19 19 20 22 23 22 19 20 20 21 21 20 19 18 17 16 16 15 14 14 13 13 13 12 12 12 12 12 12 12 12 12 12 12 12 12 12 12 12 12 12 12
18 18 15 15 17 18 18 20 21 20 21 22 21 19 19 20 20 20 20 19 19 18 17 16 15 15 14 13 13 13 12 12 12 12 12 12 12 12 12 12 12 12 12 12 12 12 12 12 12
18 15 14 15 17 19 19 21 21 20 21 22 21 19 19 20 20 20 20 19 19 18 17 16 15 15 14 14 13 13 12 12 12 12 12 12 12 12 12 12 12 12 12 12 12 12 11 11 11
17 14 15 16 17 18 20 22 21 20 20 21 21 18 18 19 19 20 19 19 18 18 17 16 15 15 14 13 13 13 12 12 12 12 12 12 12 12 12 12 12 12 12 11 11 11 11 11 11
18 14 16 16 17 19 20 22 22 22 21 22 22 18 18 19 18 18 18 18 18 17 17 16 16 15 14 14 13 13 12 12 12 12 12 12 12 11 12 12 11 11 11 11 11 11 10 10 10
18 14 15 17 18 19 20 21 22 22 22 22 21 22 22 20 18 17 17 17 17 16 16 16 16 15 14 14 13 12 12 12 12 12 11 11 11 11 11 11 11 11 11 10 10 10 10 10 10
17 14 16 18 18 19 20 20 21 21 21 20 21 21 21 19 18 18 17 17 17 17 16 16 16 15 14 14 13 12 12 12 12 11 11 11 11 11 11 11 10 10 10 10 10 10 9 9 9
16 15 16 18 20 20 20 20 21 20 19 20 21 21 20 19 18 18 18 19 19 18 17 16 16 15 15 14 13 13 12 12 11 11 11 11 11 10 10 10 10 10 10 10 9 9 9 9 9
16 16 18 19 20 20 19 20 20 20 21 21 21 21 20 19 19 19 18 18 18 18 17 17 16 15 15 14 14 13 13 12 12 11 11 11 11 10 10 10 10 9 9 9 9 9 9 9 8
16 16 18 19 19 20 20 19 19 20 21 21 21 20 20 20 20 19 19 18 18 17 17 17 16 15 15 14 14 13 13 12 12 11 11 11 10 10 10 10 9 9 9 9 9 9 9 9 8
16 17 18 18 19 19 18 18 18 20 21 20 20 20 20 20 20 19 18 18 17 17 17 17 16 15 15 14 14 13 13 12 12 11 11 11 10 10 10 10 9 9 9 9 9 9 9 9 8
18 16 16 17 18 18 18 16 16 20 20 20 20 20 20 20 20 19 19 19 18 18 17 17 16 15 15 14 14 13 13 12 12 12 11 11 10 10 10 10 10 9 9 9 9 9 9 9 9
16 15 15 16 17 17 17 15 16 20 20 19 20 20 20 20 20 20 20 19 19 18 17 17 16 15 15 14 14 13 13 12 12 12 11 11 10 10 10 10 10 9 9 9 9 9 9 9 9
14 14 14 16 16 16 15 15 16 20 19 19 20 20 20 20 20 20 20 19 19 19 18 17 16 16 15 14 14 13 13 12 12 11 11 11 10 10 10 10 10 9 9 9 9 9 9 9 9
13 13 14 15 16 15 15 15 16 19 18 18 19 20 20 20 20 20 20 20 19 19 18 17 17 16 15 14 13 12 12 12 12 11 11 11 11 10 10 10 10 9 9 9 9 9 9 9 9
14 14 15 15 16 15 14 15 16 17 17 17 18 19 20 20 21 21 20 20 19 19 18 17 17 16 15 14 13 12 12 12 12 11 11 11 10 10 10 10 10 9 9 9 9 9 9 9 9
14 14 14 15 16 16 14 15 15 15 16 18 18 19 20 20 20 20 20 20 20 19 18 18 17 16 15 15 14 14 13 12 12 11 11 11 10 10 10 10 10 10 9 9 9 9 9 9 9
14 13 14 14 15 15 15 14 15 15 17 18 18 19 20 20 20 20 20 20 20 19 19 18 17 16 16 15 14 13 12 11 11 11 11 11 11 10 10 10 10 10 10 10 9 9 9 9 9
13 14 14 14 14 13 15 12 13 14 15 16 17 19 20 20 20 20 20 20 20 19 19 18 17 17 16 15 14 13 12 12 12 12 11 11 11 11 10 10 10 10 10 10 9 9 9 9 9
14 15 15 14 13 13 13 12 13 14 15 16 16 18 19 20 20 20 20 20 20 19 18 18 17 16 16 15 14 14 13 13 12 12 11 11 11 10 10 10 10 10 10 10 9 9 9 9 9
14 14 14 12 12 12 12 12 12 13 15 16 16 18 19 20 20 20 19 19 19 18 18 17 17 16 15 15 14 14 13 12 12 11 11 11 11 10 10 10 10 10 10 10 9 9 9 9 9
14 12 12 12 11 11 12 12 13 14 15 15 16 18 19 19 19 19 19 19 18 18 17 17 16 16 15 14 14 13 13 12 12 12 11 11 11 10 10 10 10 10 10 9 9 9 9 9 9
13 13 12 11 11 11 12 12 13 14 15 16 18 18 19 19 19 19 19 19 18 18 17 17 16 16 15 14 14 13 13 12 12 11 11 11 11 11 10 10 10 10 9 9 9 9 9 9 8
12 13 13 12 11 11 11 12 13 14 14 15 15 17 18 18 18 18 18 18 18 17 17 16 16 15 15 14 14 13 13 12 12 11 11 11 11 10 10 10 10 9 9 9 9 9 9 8 8
13 13 12 11 11 11 11 12 13 15 14 14 13 15 17 18 18 18 18 18 17 17 17 16 16 15 15 14 14 13 13 12 11 11 11 10 10 10 10 10 10 9 9 9 9 9 8 8 8
12 12 12 11 11 10 10 12 13 14 15 14 14 16 18 18 18 18 18 17 17 16 16 16 15 15 15 14 13 13 12 12 11 11 11 10 10 10 10 10 9 9 9 9 9 8 8 8 8
13 12 12 12 10 10 10 12 14 13 14 14 14 17 18 18 18 18 18 17 16 16 16 15 15 15 14 14 13 13 12 11 11 11 10 10 10 10 9 9 9 9 9 9 8 8 8 8 7
Wind_Speed
6 5 3 4 5 4 3 5 4 4 3 2 6 11 11 7 4 4 4 13 14 15 20 22 22 20 19 18 18 17 17 16 16 16 15 15 14 14 14 14 14 14 14 14 14 14 14 14 14
3 2 4 5 5 1 5 4 5 5 7 7 8 8 8 4 3 8 7 13 19 19 20 21 22 21 20 19 19 18 17 16 16 15 15 14 13 13 13 13 13 13 13 13 13 13 13 13 13
3 2 4 4 3 5 4 4 7 5 5 5 6 6 8 8 7 10 10 18 18 18 20 22 23 22 21 20 19 18 18 17 16 16 15 14 13 13 13 12 12 12 13 13 12 12 12 12 12
3 5 5 3 4 6 6 5 5 7 3 5 7 7 4 3 8 9 16 19 18 14 20 23 24 22 21 20 20 19 18 17 16 15 15 14 13 13 12 12 12 11 11 12 12 11 11 11 11
4 4 3 1 5 5 5 6 6 7 7 5 7 7 2 5 5 15 20 20 19 14 19 22 24 23 22 21 20 19 19 17 16 15 15 14 13 13 12 12 11 11 11 10 10 10 10 9 9
4 4 3 3 6 4 4 5 6 5 4 4 8 7 1 2 11 16 18 18 17 16 19 21 24 23 22 21 21 20 19 18 17 16 15 14 13 13 12 11 11 10 10 9 9 9 8 7 7
4 4 3 4 4 4 5 4 6 6 4 5 9 8 3 4 9 13 14 14 14 16 16 18 21 22 22 22 21 20 19 18 17 16 15 14 13 12 11 11 10 9 8 8 7 7 6 5 5
5 4 2 3 4 5 4 2 5 7 4 3 7 11 8 9 9 10 11 11 12 12 12 14 17 19 20 20 21 20 19 18 17 16 16 14 13 12 11 10 9 8 7 6 5 5 4 3 3
4 3 3 4 4 4 2 1 1 4 6 4 3 7 8 14 13 13 10 9 11 13 11 12 14 16 18 18 20 20 20 19 18 17 16 15 13 12 11 10 9 7 6 5 3 2 1 1 2
4 4 7 4 3 3 1 0 2 4 4 3 4 4 8 15 17 17 15 17 17 17 15 12 13 15 17 17 17 17 17 18 17 16 16 15 14 12 11 11 9 8 6 4 3 2 1 2 4
7 7 5 4 3 1 1 2 0 5 4 6 7 8 11 12 14 16 17 18 19 18 17 15 14 16 16 13 15 14 15 16 17 18 17 16 13 11 11 10 9 7 6 4 3 3 3 4 5
5 7 6 5 3 2 2 1 1 4 7 7 10 14 15 15 17 18 18 16 14 16 18 16 15 15 16 15 14 14 13 13 14 17 18 15 11 10 10 9 9 8 7 6 5 4 4 5 5
7 6 5 6 5 4 4 4 4 6 7 4 7 12 16 17 17 16 15 14 13 17 18 18 17 16 15 13 13 13 13 14 15 16 17 16 11 8 9 9 9 9 8 7 5 4 4 4 4
7 8 8 7 7 5 6 6 4 9 6 4 7 12 15 16 17 13 12 13 15 17 19 18 19 18 16 13 11 12 15 16 16 16 17 18 15 12 9 8 8 8 9 8 6 4 3 2 2
6 5 7 7 7 6 4 8 9 11 5 6 9 11 14 15 15 15 16 17 18 18 18 19 20 18 17 15 14 14 15 16 15 16 18 18 16 14 11 7 6 8 9 7 5 3 2 1 1
2 4 6 7 7 7 7 11 12 10 7 10 10 11 12 13 14 16 16 16 16 16 18 19 18 19 18 15 14 13 15 16 15 16 17 18 18 16 12 7 6 9 8 6 3 1 1 0 1
3 6 8 7 6 7 9 10 11 7 8 11 11 11 12 12 13 14 15 16 16 18 19 19 19 20 19 16 14 12 14 14 15 16 16 18 18 17 13 9 8 10 7 4 3 2 2 1 2
8 7 6 8 5 8 10 12 11 8 8 11 12 12 12 13 16 14 15 15 15 16 18 19 19 19 18 13 10 9 9 10 13 14 16 17 17 17 14 9 9 9 5 3 3 2 1 1 1
7 7 7 7 6 7 11 15 15 12 9 12 12 13 14 15 14 11 12 12 12 14 16 18 18 18 16 14 13 12 11 10 9 10 15 17 17 17 14 8 8 7 5 5 4 3 2 1 0
9 8 7 6 4 7 9 14 14 12 11 13 14 14 14 13 11 9 9 10 13 15 17 18 19 19 18 16 14 10 9 7 8 8 12 17 17 17 14 10 7 7 5 5 5 4 3 1 1
14 12 11 7 5 3 4 9 10 10 9 10 11 12 11 14 13 11 10 11 12 15 17 17 19 18 18 15 10 7 5 4 5 8 9 11 16 16 14 13 10 8 7 6 6 5 5 3 1
16 12 10 8 5 5 3 6 9 8 10 10 11 10 11 11 11 10 10 11 13 15 14 15 17 17 16 16 15 15 12 10 10 8 8 9 13 15 15 14 12 9 7 7 6 6 4 5 3
8 8 10 8 7 6 5 5 9 6 10 12 12 11 11 10 11 11 11 12 12 12 12 13 14 15 15 17 18 17 12 9 6 7 9 9 9 12 14 14 12 9 7 7 7 6 5 4 5
7 5 3 1 3 9 11 9 9 7 11 10 9 10 10 10 9 9 8 8 8 8 10 11 14 14 15 16 17 17 15 12 11 10 11 9 7 7 10 12 11 9 8 8 7 7 7 6 5
9 8 4 4 5 9 8 9 11 11 12 12 11 11 10 9 8 7 8 8 9 10 11 12 14 14 14 16 16 16 16 16 16 13 13 11 8 7 10 9 9 8 8 9 8 7 7 7 6
16 15 10 9 8 6 6 10 10 12 10 9 10 9 8 8 8 8 9 9 10 11 11 12 13 12 14 15 15 14 14 13 11 13 11 12 10 10 10 10 10 10 10 9 8 6 6 6 7
14 15 9 6 4 4 6 7 8 5 6 8 8 8 10 9 9 9 8 9 9 10 12 13 14 12 13 14 13 12 13 13 12 11 10 10 8 8 10 11 10 9 10 9 8 6 7 7 7
13 12 7 8 8 7 6 7 7 8 11 10 10 11 11 10 9 8 8 8 8 9 9 10 11 12 11 12 12 11 12 12 11 11 12 11 10 9 10 10 10 10 9 9 8 7 6 7 6
11 12 9 8 6 7 6 8 9 13 13 13 14 12 12 11 10 9 8 8 8 7 8 9 10 9 10 11 11 11 11 11 11 12 12 11 10 11 12 12 11 11 10 9 9 8 8 8 7
12 14 13 13 9 8 6 9 7 10 11 12 13 12 10 10 9 8 8 7 7 8 9 10 10 10 10 10 10 10 10 10 11 11 11 11 12 11 12 11 11 10 10 10 10 9 9 9 9
Wind_Direction
327 345 73 58 57 53 250 243 201 164 123 128 102 102 108 110 142 153 145 143 143 150 160 159 157 154 150 145 139 132 128 124 120 116 112 108 105 101 97 94 91 89 87 85 84 83 81 80 80
349 23 60 62 90 127 264 242 177 172 162 143 104 97 94 94 124 128 131 153 148 152 156 158 158 155 151 147 143 138 133 129 124 121 117 114 111 107 103 100 98 94 91 90 88 86 84 83 82
343 64 81 79 137 193 228 216 172 162 163 125 89 83 128 151 158 162 163 151 146 151 156 159 159 156 153 150 147 144 140 134 129 127 124 120 117 113 109 106 103 99 96 94 92 88 86 85 83
48 47 58 84 236 234 207 209 171 138 119 90 104 88 120 164 175 169 148 147 147 151 157 161 160 158 156 154 151 148 145 140 136 133 130 127 123 119 116 112 109 105 101 97 94 91 87 85 83
63 76 68 304 254 253 213 203 177 147 149 124 112 116 112 336 142 141 147 151 152 154 159 164 163 161 159 157 155 152 149 145 142 140 136 133 129 125 122 119 115 111 107 102 97 93 89 85 82
58 74 108 240 254 260 245 198 150 145 152 126 116 120 133 81 136 149 153 154 155 157 160 166 166 164 162 161 159 157 154 151 149 146 142 139 136 132 130 126 122 117 111 105 99 95 89 85 80
116 114 193 230 255 265 244 185 146 144 146 169 135 123 146 167 161 150 149 148 153 158 160 165 167 166 165 163 162 161 159 156 154 152 148 145 143 141 138 135 131 125 118 111 104 97 90 80 70
140 120 237 246 231 246 249 163 153 140 164 150 127 144 179 193 161 136 135 142 152 159 162 164 165 166 166 166 166 165 164 162 161 157 153 151 151 149 147 145 142 137 132 126 117 106 89 65 39
114 103 225 232 217 238 274 115 92 139 110 82 108 175 187 151 141 134 137 146 160 167 170 166 164 165 165 166 169 167 166 166 164 161 158 155 154 155 155 157 157 154 151 147 140 131 102 355 327
125 178 223 229 216 214 312 76 159 105 94 82 54 47 119 143 154 159 165 170 174 177 178 173 169 166 165 170 169 168 167 168 165 164 163 163 163 165 167 172 174 173 174 180 192 219 267 299 300
175 199 226 251 246 225 342 329 325 134 172 185 175 162 149 159 169 176 180 181 182 179 178 178 174 171 169 169 168 168 166 167 168 169 170 171 171 174 177 181 185 189 194 208 237 262 278 281 281
203 230 220 238 240 205 218 252 297 191 208 197 181 167 166 174 184 188 189 188 181 178 183 180 177 174 174 171 172 171 170 172 175 178 176 174 174 177 181 185 191 197 205 217 239 254 275 278 277
230 248 244 237 228 213 211 231 237 246 243 222 169 168 180 187 194 199 195 188 180 183 185 182 180 179 177 173 175 178 178 180 182 183 184 181 178 181 184 191 194 201 208 215 230 248 272 284 288
222 232 251 249 238 225 220 249 229 250 247 215 184 188 196 198 200 199 197 194 191 190 188 184 183 182 178 179 180 181 183 184 184 188 189 187 183 182 181 188 195 203 209 213 213 224 238 260 282
220 240 272 249 225 223 205 266 238 241 242 233 218 209 207 211 206 203 202 200 198 195 189 186 186 183 182 182 182 182 184 184 187 192 192 190 188 185 183 184 191 201 205 203 200 214 227 266 316
186 207 246 256 211 202 173 250 255 248 225 235 233 225 220 221 216 214 209 204 200 194 190 189 187 185 186 185 183 183 184 186 190 191 192 192 191 188 184 184 194 195 191 187 177 176 174 317 326
214 206 222 257 220 187 189 239 255 246 211 232 238 234 229 231 231 223 215 208 201 196 191 189 187 186 187 185 183 182 183 187 190 190 192 194 192 189 186 188 190 184 177 176 172 163 161 215 292
203 204 213 222 235 186 210 239 254 255 225 235 242 242 238 235 235 225 215 209 202 196 191 189 187 186 184 181 177 177 181 187 189 191 193 191 192 190 187 185 183 176 165 171 170 165 146 174 251
186 191 217 235 231 197 225 242 250 250 245 245 245 243 241 242 242 229 214 204 196 192 189 188 186 184 179 181 182 184 190 189 190 193 192 191 190 188 184 179 177 174 175 181 176 158 152 174 71
218 226 238 268 252 217 242 253 253 246 237 237 240 241 239 241 244 229 209 196 191 190 189 188 187 184 183 186 186 187 181 183 188 188 190 191 188 187 186 179 179 177 173 175 176 163 153 158 114
221 222 226 238 294 296 269 280 262 259 246 248 243 238 235 230 230 223 209 200 192 192 190 190 189 186 185 179 170 155 145 146 174 190 193 192 189 187 185 183 177 178 178 184 185 174 165 175 178
225 217 214 226 240 264 229 273 270 256 265 256 250 241 234 231 221 215 207 201 197 197 191 188 187 185 183 176 176 175 182 189 192 187 188 187 188 186 185 181 179 180 181 182 185 178 169 159 176
205 188 200 214 216 249 245 249 270 255 253 253 245 237 234 226 216 215 211 204 199 191 186 185 182 183 181 181 182 184 189 187 171 170 179 186 187 186 183 180 179 181 183 183 178 173 172 171 174
174 135 148 148 183 243 225 217 265 227 226 239 237 229 228 222 217 218 212 196 191 183 179 178 178 183 182 183 184 188 186 177 171 178 185 188 188 188 185 181 181 182 181 183 184 181 177 181 178
168 152 176 212 222 240 210 213 246 233 227 221 221 222 220 213 205 204 198 192 187 182 180 179 179 183 183 185 188 190 187 183 185 185 188 186 187 193 192 184 184 184 185 185 180 180 185 184 184
191 180 184 193 207 241 204 224 247 242 236 226 217 210 207 205 204 205 204 195 190 186 182 180 182 183 184 187 190 189 186 188 192 190 188 191 195 195 187 186 187 186 184 184 181 185 190 187 192
181 197 181 157 181 216 238 257 288 246 221 215 205 198 204 207 206 207 203 196 190 187 187 185 184 184 187 189 187 187 188 190 190 187 187 191 191 186 184 185 187 187 185 184 181 191 194 190 199
179 167 160 181 186 220 253 239 230 218 212 214 211 210 215 213 210 208 203 198 193 190 187 184 185 187 186 187 188 190 191 191 187 185 190 191 187 182 182 186 188 188 189 187 186 192 194 194 204
171 179 175 178 188 186 228 250 218 207 204 204 211 212 209 208 207 206 204 198 189 181 180 184 187 187 188 189 189 189 190 187 186 190 193 190 187 184 186 188 189 190 192 190 192 198 194 201 210
180 186 177 189 203 191 205 254 245 214 208 200 205 210 209 206 203 199 194 186 184 187 188 188 190 192 193 188 186 189 186 184 188 192 191 187 187 188 188 187 190 193 194 193 196 201 201 204 211
Height
1517 1518 1519 1521 1524 1534 1533 1523 1516 1513 1512 1511 1511 1512 1517 1522 1526 1532 1531 1529 1532 1534 1536 1539 1542 1543 1545 1546 1548 1548 1549 1550 1550 1550 1550 1551 1551 1551 1551 1551 1551 1551 1551 1551 1551 1550 1550 1550 1550
1518 1519 1521 1521 1530 1539 1532 1519 1514 1510 1509 1511 1512 1514 1517 1521 1523 1525 1527 1529 1532 1534 1536 1539 1541 1543 1545 1546 1547 1548 1549 1550 1550 1550 1551 1551 1551 1551 1551 1551 1552 1552 1551 1551 1551 1551 1551 1551 1551
1518 1519 1520 1523 1531 1534 1525 1514 1511 1508 1508 1509 1512 1515 1518 1520 1522 1524 1526 1529 1531 1534 1536 1538 1541 1542 1544 1546 1547 1548 1549 1550 1550 1551 1551 1551 1551 1552 1552 1552 1552 1552 1552 1552 1552 1552 1552 1552 1552
1518 1520 1521 1527 1527 1521 1515 1511 1508 1508 1509 1509 1512 1517 1519 1522 1523 1524 1526 1528 1531 1533 1536 1538 1540 1542 1544 1545 1547 1548 1549 1550 1550 1551 1551 1552 1552 1552 1552 1552 1552 1553 1553 1553 1553 1553 1553 1553 1553
1518 1519 1524 1529 1523 1514 1509 1507 1507 1507 1507 1509 1511 1516 1519 1521 1523 1524 1526 1528 1530 1533 1535 1538 1540 1542 1543 1545 1546 1548 1549 1549 1550 1551 1551 1552 1552 1552 1552 1553 1553 1553 1553 1554 1554 1554 1554 1554 1554
1518 1519 1530 1531 1521 1512 1508 1506 1506 1506 1507 1509 1511 1515 1519 1521 1522 1524 1526 1528 1530 1532 1535 1537 1539 1541 1543 1544 1546 1547 1548 1549 1550 1551 1551 1552 1552 1553 1553 1553 1554 1554 1554 1554 1555 1555 1555 1555 1555
1518 1522 1526 1523 1519 1513 1507 1504 1504 1505 1507 1509 1510 1514 1517 1520 1522 1524 1526 1528 1530 1532 1534 1536 1538 1540 1542 1544 1545 1547 1548 1549 1550 1551 1551 1552 1553 1553 1553 1554 1554 1554 1555 1555 1555 1555 1556 1555 1555
1516 1520 1521 1520 1517 1512 1504 1503 1503 1503 1506 1509 1510 1512 1515 1518 1521 1524 1526 1528 1530 1532 1533 1535 1537 1539 1541 1543 1544 1546 1547 1549 1550 1551 1551 1552 1553 1553 1554 1554 1554 1555 1555 1555 1556 1556 1556 1556 1556
1514 1522 1523 1517 1513 1508 1503 1503 1503 1503 1505 1507 1508 1509 1511 1515 1519 1522 1525 1527 1528 1530 1532 1534 1535 1537 1539 1541 1543 1545 1546 1548 1549 1550 1551 1552 1552 1553 1554 1554 1555 1555 1555 1556 1556 1556 1556 1556 1556
1512 1520 1515 1508 1506 1504 1503 1502 1502 1503 1504 1506 1507 1508 1510 1513 1516 1518 1520 1522 1524 1526 1529 1531 1533 1535 1538 1540 1541 1543 1545 1546 1548 1549 1550 1551 1552 1553 1553 1554 1554 1555 1555 1556 1556 1556 1556 1556 1556
1508 1511 1507 1505 1503 1503 1502 1502 1502 1502 1504 1504 1505 1507 1509 1511 1513 1515 1516 1518 1520 1523 1526 1528 1531 1533 1535 1537 1539 1541 1543 1544 1546 1547 1549 1550 1551 1552 1553 1553 1554 1555 1555 1555 1556 1556 1556 1556 1555
1506 1504 1503 1502 1502 1502 1502 1502 1501 1501 1501 1502 1504 1505 1507 1509 1510 1512 1513 1515 1518 1520 1522 1525 1528 1530 1532 1535 1537 1539 1540 1542 1544 1546 1547 1548 1550 1551 1552 1553 1553 1554 1555 1555 1555 1555 1555 1555 1554
1503 1501 1500 1500 1500 1500 1500 1500 1500 1498 1499 1500 1501 1503 1504 1505 1507 1509 1511 1513 1515 1517 1519 1522 1524 1527 1529 1532 1534 1536 1538 1540 1542 1544 1545 1547 1548 1549 1551 1552 1553 1553 1554 1554 1554 1554 1554 1554 1553
1498 1498 1498 1498 1498 1498 1498 1497 1498 1494 1496 1497 1498 1499 1501 1502 1503 1506 1508 1509 1511 1513 1515 1518 1520 1523 1526 1528 1531 1533 1536 1538 1540 1542 1543 1545 1547 1548 1549 1550 1551 1552 1553 1553 1553 1553 1553 1553 1552
1496 1497 1497 1495 1495 1495 1497 1498 1493 1491 1493 1494 1495 1496 1497 1498 1500 1501 1502 1504 1506 1508 1511 1513 1516 1519 1522 1525 1527 1530 1533 1535 1537 1539 1541 1543 1545 1546 1548 1549 1550 1551 1551 1552 1552 1552 1552 1551 1551
1494 1498 1501 1493 1491 1492 1499 1499 1488 1487 1489 1489 1490 1491 1493 1494 1495 1496 1498 1500 1502 1504 1506 1509 1512 1514 1517 1520 1524 1527 1530 1532 1535 1537 1539 1541 1543 1545 1546 1547 1548 1549 1550 1550 1550 1550 1550 1550 1549
1497 1501 1499 1494 1488 1489 1493 1493 1483 1483 1484 1485 1485 1486 1487 1488 1490 1491 1493 1495 1497 1499 1501 1504 1506 1509 1513 1516 1520 1523 1526 1529 1531 1534 1536 1538 1540 1542 1544 1545 1546 1547 1548 1548 1548 1548 1548 1548 1547
1498 1498 1495 1493 1485 1488 1490 1487 1481 1480 1481 1480 1480 1480 1481 1482 1482 1485 1487 1489 1491 1493 1495 1498 1501 1504 1508 1512 1516 1519 1522 1525 1528 1530 1533 1535 1537 1539 1541 1543 1544 1545 1546 1546 1546 1546 1546 1545 1545
1487 1490 1491 1487 1482 1486 1487 1483 1478 1475 1476 1475 1474 1474 1474 1474 1476 1478 1480 1483 1485 1487 1489 1492 1495 1499 1503 1506 1510 1513 1516 1520 1523 1526 1529 1532 1534 1536 1538 1540 1541 1542 1543 1544 1544 1544 1544 1543 1543
1485 1489 1489 1486 1480 1483 1484 1481 1473 1470 1469 1468 1467 1466 1466 1467 1469 1471 1474 1476 1478 1480 1483 1486 1489 1493 1496 1500 1504 1508 1512 1516 1519 1523 1525 1528 1531 1533 1535 1536 1538 1539 1540 1541 1541 1542 1541 1541 1541
1481 1485 1486 1487 1481 1480 1482 1480 1472 1464 1462 1461 1460 1459 1460 1460 1462 1464 1466 1469 1472 1474 1477 1480 1483 1487 1491 1496 1501 1505 1509 1513 1515 1518 1520 1524 1526 1529 1531 1533 1535 1536 1537 1538 1538 1539 1539 1538 1538
1476 1474 1478 1482 1488 1490 1484 1492 1474 1464 1459 1456 1454 1453 1453 1454 1456 1458 1460 1462 1465 1468 1471 1475 1478 1482 1486 1491 1494 1498 1501 1504 1507 1511 1516 1519 1522 1525 1527 1529 1531 1532 1534 1534 1535 1536 1536 1536 1535
1468 1469 1475 1479 1485 1490 1486 1490 1474 1463 1458 1451 1448 1447 1448 1449 1451 1452 1454 1457 1460 1463 1466 1470 1473 1477 1481 1485 1489 1492 1496 1500 1504 1508 1512 1515 1518 1521 1523 1525 1527 1528 1530 1531 1532 1532 1533 1533 1532
1463 1469 1475 1481 1486 1493 1483 1487 1474 1461 1450 1445 1442 1442 1443 1445 1446 1448 1450 1452 1455 1458 1461 1465 1468 1472 1476 1480 1484 1487 1491 1495 1499 1503 1506 1510 1513 1516 1518 1521 1523 1524 1526 1527 1528 1529 1529 1529 1529
1461 1474 1487 1490 1493 1487 1475 1476 1462 1446 1439 1437 1437 1437 1439 1440 1442 1444 1445 1447 1450 1453 1456 1460 1463 1467 1471 1475 1479 1482 1486 1490 1494 1497 1501 1505 1508 1510 1513 1516 1518 1520 1522 1523 1524 1525 1525 1525 1525
1453 1461 1475 1484 1487 1480 1471 1469 1450 1435 1431 1431 1432 1434 1435 1436 1438 1440 1442 1444 1446 1449 1452 1455 1459 1462 1466 1470 1474 1478 1482 1485 1489 1493 1496 1500 1502 1506 1509 1511 1514 1516 1517 1519 1520 1521 1521 1521 1521
1448 1453 1456 1468 1473 1475 1469 1457 1442 1430 1429 1429 1430 1431 1431 1433 1435 1437 1439 1441 1443 1445 1448 1451 1454 1458 1462 1466 1470 1473 1477 1480 1484 1488 1492 1495 1498 1502 1504 1507 1509 1511 1513 1514 1515 1516 1516 1517 1517
1433 1443 1456 1463 1472 1474 1464 1456 1444 1430 1428 1428 1428 1427 1428 1430 1432 1434 1436 1438 1440 1442 1445 1448 1451 1454 1458 1462 1465 1469 1472 1476 1480 1483 1487 1490 1493 1497 1500 1502 1504 1506 1508 1509 1510 1511 1512 1512 1512
1432 1438 1442 1452 1459 1465 1465 1450 1424 1420 1419 1421 1422 1422 1424 1426 1428 1430 1433 1435 1437 1439 1442 1444 1447 1450 1454 1457 1461 1464 1468 1471 1475 1478 1482 1485 1489 1492 1494 1497 1499 1501 1502 1504 1505 1506 1507 1507 1507
1417 1423 1431 1443 1450 1452 1454 1439 1411 1412 1411 1413 1416 1418 1420 1423 1425 1428 1430 1432 1434 1436 1438 1441 1444 1446 1450 1453 1456 1459 1463 1467 1470 1473 1477 1480 1483 1486 1489 1492 1494 1496 1497 1499 1500 1501 1501 1502 1501